St. Charles, IL

8:57 PM CDT on May 25, 2017 (GMT -0500)
Saint Charles County Smartt

Weather History for KSET - October, 2013

Change the Weather History Date:

Tuesday, October 22, 2013

  Actual Average (KSTL) Record (KSTL)
Temperature  
Mean Temperature 45 °F -  
Max Temperature 61 °F 66 °F 86 °F (1947)
Min Temperature 30 °F 45 °F 25 °F (1976)
Degree Days  
Heating Degree Days 20    
Moisture  
Dew Point 37 °F    
Average Humidity 81    
Maximum Humidity 96    
Minimum Humidity 51    
Precipitation  
Precipitation 0.12 in - - ()
Sea Level Pressure  
Sea Level Pressure 29.96 in    
Wind  
Wind Speed 5 mph (WNW)    
Max Wind Speed 29 mph    
Max Gust Speed 52 mph    
Visibility 8 miles    
Events Fog , Rain    
Averages and records for this station are not official NWS values.
T = Trace of Precipitation, MM = Missing Value Source: NWS Daily Summary

Daily Weather History Graph

Daily Weather History Graph

Search for Another Location

Airport or City:

Trip Planner

Search our weather history database for the weather conditions in past years. The results will help you decide how hot, cold, wet, or windy it might be!

Date:

Astronomy

Oct. 22, 2013 Rise Set
Actual Time 7:18 AM CDT 6:13 PM CDT
Civil Twilight 6:51 AM CDT 6:40 PM CDT
Nautical Twilight 6:20 AM CDT 7:11 PM CDT
Astronomical Twilight 5:49 AM CDT 7:42 PM CDT
Moon 8:55 PM CDT (10/22) 10:45 AM CDT (10/22)
Length of Visible Light 11h 48m
Length of Day
10h 54m
Waning Gibbous, 86% of the Moon is Illuminated
Oct 22
Waning Gibbous
Oct 26
Last Quarter
Nov 3
New
Nov 9
First Quarter
Nov 17
Full

Hourly Weather History & Observations

Time (CDT) Temp. Windchill Dew Point Humidity Pressure Visibility Wind Dir Wind Speed Gust Speed Precip Events Conditions
12:54 AM 34.0 °F - 30.9 °F 89% 30.06 in 10.0 mi Calm Calm - N/A   Clear
1:54 AM 35.1 °F - 32.0 °F 89% 30.06 in 10.0 mi Calm Calm - N/A   Clear
2:54 AM 32.0 °F - 30.9 °F 96% 30.06 in 2.5 mi Calm Calm - N/A   Clear
3:01 AM 30.2 °F - 28.4 °F 93% 30.05 in 10.0 mi Calm Calm - N/A   Clear
3:54 AM 33.1 °F - 30.0 °F 89% 30.04 in 8.0 mi Calm Calm - N/A   Partly Cloudy
4:02 AM 32.0 °F - 30.2 °F 93% 30.04 in 0.5 mi Calm Calm - N/A Fog Fog
4:07 AM 32.0 °F - 30.2 °F 93% 30.04 in 2.5 mi Calm Calm - N/A   Partly Cloudy
4:26 AM 30.2 °F - 28.4 °F 93% 30.03 in 3.0 mi Calm Calm - N/A   Partly Cloudy
4:29 AM 30.2 °F - 28.4 °F 93% 30.03 in 1.8 mi Calm Calm - N/A   Partly Cloudy
4:41 AM 33.8 °F - 30.2 °F 87% 30.03 in 4.0 mi Calm Calm - N/A   Mostly Cloudy
4:54 AM 33.1 °F - 30.9 °F 92% 30.04 in 10.0 mi Calm Calm - N/A   Mostly Cloudy
5:54 AM 33.1 °F - 30.9 °F 92% 30.04 in 10.0 mi Calm Calm - N/A   Scattered Clouds
6:54 AM 35.1 °F 32.2 °F 34.0 °F 96% 30.03 in 10.0 mi ENE 3.5 mph - N/A   Overcast
7:54 AM 39.0 °F 35.7 °F 36.0 °F 89% 30.01 in 10.0 mi ESE 4.6 mph - N/A   Overcast
8:54 AM 42.1 °F 40.2 °F 37.9 °F 85% 30.00 in 10.0 mi ESE 3.5 mph - N/A   Overcast
9:49 AM 46.4 °F 42.4 °F 39.2 °F 76% 29.98 in 1.5 mi South 8.1 mph - N/A   Haze
9:54 AM 46.0 °F 41.4 °F 37.9 °F 73% 29.98 in 10.0 mi South 9.2 mph - N/A   Overcast
10:54 AM 51.1 °F - 36.0 °F 56% 29.95 in 10.0 mi SSW 8.1 mph - N/A   Overcast
11:54 AM 52.0 °F - 39.9 °F 63% 29.91 in 10.0 mi South 10.4 mph - 0.00 in Rain Light Rain
12:54 PM 52.0 °F - 42.1 °F 69% 29.87 in 9.0 mi South 11.5 mph - 0.00 in Rain Light Rain
1:54 PM 53.1 °F - 45.0 °F 74% 29.83 in 10.0 mi SSE 5.8 mph - 0.01 in   Overcast
2:54 PM 57.9 °F - 43.0 °F 58% 29.81 in 10.0 mi WSW 13.8 mph - 0.00 in   Overcast
3:54 PM 60.1 °F - 42.1 °F 51% 29.79 in 10.0 mi WSW 9.2 mph - N/A   Overcast
4:39 PM 53.6 °F - 44.6 °F 72% 29.82 in 2.5 mi WNW 28.8 mph 51.8 mph 0.04 in Rain Rain
4:47 PM 51.8 °F - 46.4 °F 82% 29.83 in 1.5 mi WNW 18.4 mph 33.4 mph 0.06 in Rain Rain
4:54 PM 51.1 °F - 46.9 °F 86% 29.83 in 2.5 mi WNW 16.1 mph - 0.08 in Rain Rain
5:08 PM 50.0 °F - 46.4 °F 87% 29.83 in 4.0 mi WNW 10.4 mph - 0.02 in Rain Light Rain
5:54 PM 51.1 °F - 46.0 °F 83% 29.86 in 10.0 mi NNW 13.8 mph 19.6 mph 0.03 in   Mostly Cloudy
6:54 PM 48.0 °F - 42.1 °F 80% 29.89 in 10.0 mi NNW 12.7 mph - N/A   Partly Cloudy
7:54 PM 46.9 °F - 41.0 °F 80% 29.92 in 10.0 mi NW 17.3 mph 24.2 mph N/A   Overcast
8:31 PM 44.6 °F 35.9 °F 39.2 °F 81% 29.94 in 10.0 mi NNW 23.0 mph 31.1 mph N/A   Mostly Cloudy
8:54 PM 44.1 °F 35.0 °F 37.0 °F 76% 29.96 in 10.0 mi NW 24.2 mph 32.2 mph N/A   Overcast
9:54 PM 42.1 °F 33.1 °F 35.1 °F 76% 29.99 in 10.0 mi NNW 20.7 mph 29.9 mph N/A   Overcast
10:54 PM 42.1 °F 35.2 °F 35.1 °F 76% 30.00 in 10.0 mi NNW 12.7 mph 23.0 mph N/A   Overcast
11:54 PM 41.0 °F 33.1 °F 35.1 °F 79% 30.00 in 10.0 mi NNW 15.0 mph - N/A   Overcast